Change the Weather History Date:

Monday, March 17, 2014

  Actual Average (YMML) Record (YMML)
Temperature  
Mean Temperature 65 °F -  
Max Temperature 78 °F 72 °F 102 °F (2008)
Min Temperature 52 °F 53 °F 48 °F (1998)
Growing Degree Days 15 (Base 50)    
Moisture  
Dew Point 52 °F    
Average Humidity 59    
Maximum Humidity 77    
Minimum Humidity 36    
Precipitation  
Precipitation 0.00 in - - ()
Sea Level Pressure  
Sea Level Pressure 29.85 in    
Wind  
Wind Speed 14 mph ()    
Max Wind Speed 38 mph    
Max Gust Speed 47 mph    
Visibility 6.2 miles    
Events      
Averages and records for this station are not official NWS values.
T = Trace of Precipitation, MM = Missing Value Source: Averaged Metar Reports

Daily Weather History Graph

Daily Weather History Graph

Search for Another Location

Airport or City:

Trip Planner

Search our weather history database for the weather conditions in past years. The results will help you decide how hot, cold, wet, or windy it might be!

Date:

Astronomy

Mar. 17, 2014 Rise Set
Actual Time 7:21 AM AEDT 7:38 PM AEDT
Civil Twilight 6:55 AM AEDT 8:05 PM AEDT
Nautical Twilight 6:24 AM AEDT 8:35 PM AEDT
Astronomical Twilight 5:52 AM AEDT 9:07 PM AEDT
Moon 7:43 PM AEDT (3/17) 7:37 AM AEDT (3/17)
Length of Visible Light 13h 09m
Length of Day
12h 17m
Full, 100% of the Moon is Illuminated
Mar 17
Full
Mar 24
Last Quarter
Mar 31
New
Apr 7
First Quarter
Apr 15
Full

Hourly Weather History & Observations

Time (AEDT) Temp. Dew Point Humidity Pressure Visibility Wind Dir Wind Speed Gust Speed Precip Events Conditions
12:00 AM 58 °F 46 °F 55% 29.81 in - North 12.7 mph - -   Overcast
12:00 AM 57.2 °F 46.4 °F 67% 29.80 in 6.2 mi North 12.7 mph - N/A   Overcast
12:30 AM 57.2 °F 46.4 °F 67% 29.80 in 6.2 mi North 10.4 mph - N/A   Overcast
1:00 AM 57.2 °F 46.4 °F 67% 29.80 in 6.2 mi North 12.7 mph - N/A   Overcast
1:30 AM 59.0 °F 46.4 °F 63% 29.77 in 6.2 mi North 10.4 mph - N/A   Overcast
2:00 AM 59.0 °F 46.4 °F 63% 29.77 in 6.2 mi North 10.4 mph - N/A   Overcast
2:30 AM 59.0 °F 46.4 °F 63% 29.77 in 6.2 mi North 9.2 mph - N/A   Overcast
2:56 AM 62.6 °F 46.4 °F 55% 29.77 in 6.2 mi NNW 21.9 mph - N/A   Overcast
3:00 AM 62 °F 46 °F 45% 29.78 in - NNW 19.6 mph - -   Overcast
3:00 AM 62.6 °F 46.4 °F 55% 29.77 in 6.2 mi NNW 19.6 mph - N/A   Overcast
3:30 AM 60.8 °F 46.4 °F 59% 29.77 in 6.2 mi NNW 15.0 mph - N/A   Scattered Clouds
4:00 AM 62.6 °F 48.2 °F 59% 29.77 in 6.2 mi NNW 12.7 mph - N/A   Overcast
4:30 AM 60.8 °F 50.0 °F 68% 29.77 in 6.2 mi NNW 16.1 mph - N/A   Mostly Cloudy
5:00 AM 60.8 °F 50.0 °F 68% 29.77 in 6.2 mi North 17.3 mph - N/A   Overcast
5:30 AM 60.8 °F 51.8 °F 72% 29.77 in 6.2 mi North 13.8 mph - N/A   Overcast
6:00 AM 62 °F 52 °F 60% 29.79 in - North 15.0 mph - -   Overcast
6:00 AM 60.8 °F 51.8 °F 72% 29.77 in 6.2 mi North 15.0 mph - N/A   Overcast
6:30 AM 62.6 °F 51.8 °F 68% 29.80 in 6.2 mi NNW 13.8 mph - N/A   Overcast
7:00 AM 60.8 °F 53.6 °F 77% 29.80 in 6.2 mi NNW 13.8 mph - N/A   Overcast
7:30 AM 60.8 °F 53.6 °F 77% 29.83 in 6.2 mi North 12.7 mph - N/A   Overcast
8:00 AM 62.6 °F 53.6 °F 72% 29.83 in 6.2 mi North 11.5 mph - N/A   Overcast
8:30 AM 62.6 °F 53.6 °F 72% 29.83 in 6.2 mi North 12.7 mph - N/A   Mostly Cloudy
9:00 AM 65 °F 54 °F 58% 29.86 in - NNW 12.7 mph - -  
9:00 AM 66.2 °F 53.6 °F 64% 29.83 in 6.2 mi NNW 12.7 mph - N/A   Scattered Clouds
9:33 AM 66.2 °F 51.8 °F 60% 29.86 in 6.2 mi NW 17.3 mph 28.8 mph N/A   Mostly Cloudy
10:00 AM 69.8 °F 53.6 °F 56% 29.86 in 6.2 mi WNW 23.0 mph - N/A   Scattered Clouds
10:30 AM 71.6 °F 53.6 °F 53% 29.86 in 6.2 mi NW 21.9 mph - N/A   Scattered Clouds
11:00 AM 71.6 °F 55.4 °F 57% 29.86 in 6.2 mi NW 20.7 mph - N/A   Mostly Cloudy
11:29 AM 69.8 °F 53.6 °F 56% 29.86 in 6.2 mi West 28.8 mph - N/A   Overcast
12:00 PM 71 °F 56 °F 50% 29.87 in - WNW 21.9 mph - -  
12:04 PM 73.4 °F 53.6 °F 50% 29.86 in 6.2 mi WNW 21.9 mph 33.4 mph N/A   Mostly Cloudy
12:30 PM 73.4 °F 53.6 °F 50% 29.86 in 6.2 mi West 24.2 mph - N/A   Mostly Cloudy
1:00 PM 73.4 °F 55.4 °F 53% 29.86 in 6.2 mi West 21.9 mph - N/A   Mostly Cloudy
1:30 PM 73.4 °F 55.4 °F 53% 29.86 in 6.2 mi West 18.4 mph - N/A   Scattered Clouds
2:00 PM 71.6 °F 55.4 °F 57% 29.86 in 6.2 mi West 23.0 mph - N/A   Mostly Cloudy
2:35 PM 75.2 °F 51.8 °F 44% 29.86 in 6.2 mi WNW 20.7 mph 33.4 mph N/A   Scattered Clouds
2:57 PM 77.0 °F 48.2 °F 36% 29.83 in 6.2 mi WNW 38.0 mph - N/A   Scattered Clouds
2:59 PM 78.8 °F 50.0 °F 36% 29.83 in 6.2 mi WNW 35.7 mph 47.2 mph N/A   Scattered Clouds
3:00 PM 78.8 °F 50.0 °F 36% 29.86 in 6.2 mi WNW 35.7 mph 47.2 mph N/A   Scattered Clouds
3:29 PM 77.0 °F 50.0 °F 39% 29.86 in 6.2 mi WNW 23.0 mph 35.7 mph N/A   Mostly Cloudy
3:30 PM 77.0 °F 50.0 °F 39% 29.86 in 6.2 mi WNW 21.9 mph 35.7 mph N/A   Mostly Cloudy
4:00 PM 73.4 °F 53.6 °F 50% 29.86 in 6.2 mi West 20.7 mph - N/A   Overcast
4:30 PM 73.4 °F 51.8 °F 47% 29.86 in 6.2 mi West 18.4 mph - N/A   Overcast
5:00 PM 75.2 °F 53.6 °F 47% 29.86 in 6.2 mi West 16.1 mph - N/A   Mostly Cloudy
5:30 PM 75.2 °F 53.6 °F 47% 29.86 in 6.2 mi West 16.1 mph - N/A   Scattered Clouds
6:00 PM 74 °F 54 °F 38% 29.89 in - WSW 12.7 mph - -  
6:00 PM 73.4 °F 53.6 °F 50% 29.89 in 6.2 mi WSW 12.7 mph - N/A   Scattered Clouds
6:30 PM 73.4 °F 53.6 °F 50% 29.89 in 6.2 mi WSW 11.5 mph - N/A   Overcast
7:00 PM 69.8 °F 53.6 °F 56% 29.92 in 6.2 mi WSW 12.7 mph - N/A   Scattered Clouds
7:30 PM 68.0 °F 53.6 °F 60% 29.92 in 6.2 mi WSW 11.5 mph - N/A   Scattered Clouds
8:00 PM 66.2 °F 55.4 °F 68% 29.95 in 6.2 mi SW 8.1 mph - N/A   Mostly Cloudy
8:30 PM 62.6 °F 55.4 °F 77% 29.95 in 6.2 mi South 6.9 mph - N/A   Mostly Cloudy
9:00 PM 64 °F 55 °F 66% 29.98 in - South 8.1 mph - -  
9:00 PM 64.4 °F 55.4 °F 73% 29.98 in 6.2 mi South 8.1 mph - N/A   Overcast
9:30 PM 62.6 °F 55.4 °F 77% 29.98 in 6.2 mi ESE 3.5 mph - N/A   Mostly Cloudy
10:00 PM 62.6 °F 55.4 °F 77% 30.01 in 6.2 mi North 4.6 mph - N/A   Mostly Cloudy
10:30 PM 62.6 °F 55.4 °F 77% 30.01 in 6.2 mi North 4.6 mph - N/A   Overcast
11:00 PM 64.4 °F 53.6 °F 68% 30.01 in 6.2 mi West 12.7 mph - N/A   Overcast
11:30 PM 62.6 °F 51.8 °F 68% 30.01 in 6.2 mi West 10.4 mph - N/A   Overcast